Wind_Speed
32 33 34 33 33 33 35 36 37 38 39 40 41 41 41 41 41 40 40 42 42 41 41 40 40 40 40 40 40 39 39 40 40 40 39 39 38 38 38 38 37 38 39
31 32 33 33 34 34 35 36 36 37 38 39 40 41 41 41 40 40 40 40 40 40 42 42 40 40 41 41 40 40 40 40 40 40 39 38 37 37 37 37 37 38 38
30 30 31 32 34 35 35 35 36 36 37 38 39 40 40 40 40 40 39 38 38 40 40 42 40 40 40 40 40 40 40 39 40 39 38 38 37 37 36 37 36 37 37
29 30 30 31 32 33 34 34 34 35 36 37 38 38 38 38 39 39 39 38 37 39 40 40 40 38 38 38 38 39 39 39 39 39 38 38 38 38 37 36 36 37 38
27 28 29 29 29 31 32 32 32 33 34 35 36 36 37 37 37 38 38 39 38 38 38 38 38 37 36 37 37 37 37 37 38 39 39 38 38 37 37 36 37 37 37
26 27 27 27 28 29 29 30 32 32 34 34 34 36 36 35 36 37 38 39 38 38 37 37 38 36 36 36 36 36 36 36 37 38 38 37 38 37 37 37 37 38 37
26 26 26 26 27 27 28 29 30 31 33 33 33 34 34 34 35 36 38 39 37 37 37 37 37 37 36 35 35 35 35 36 36 37 37 37 37 37 37 36 36 37 36
25 24 23 24 25 26 27 29 29 30 31 31 32 32 32 33 34 35 37 37 37 36 37 38 37 37 36 35 35 35 36 36 36 36 36 37 38 38 37 37 36 36 35
25 25 23 24 25 26 27 27 28 29 30 31 31 32 33 34 35 35 35 35 35 35 35 36 36 36 37 37 37 36 36 36 36 35 36 37 37 37 37 36 37 36 35
25 25 24 24 24 26 26 27 27 28 28 30 32 33 33 34 35 34 34 34 34 34 35 35 35 36 36 37 36 36 36 36 35 35 35 36 36 37 36 36 37 36 35
24 24 25 25 25 26 27 27 27 28 29 30 31 31 32 33 33 33 33 34 34 34 34 35 34 35 35 35 35 36 36 36 35 35 35 35 35 36 37 36 36 36 35
25 24 25 25 26 26 27 27 28 28 28 29 29 30 31 32 32 32 32 33 34 34 35 35 35 35 35 36 36 36 36 36 36 35 35 35 36 36 36 35 35 34 34
25 25 25 26 25 26 26 26 26 26 26 27 28 29 29 30 31 31 32 33 33 33 34 35 35 35 35 35 35 34 35 36 36 35 35 36 36 37 36 35 34 35 35
26 25 24 25 25 25 25 24 25 25 25 25 26 27 28 29 30 30 31 31 32 32 33 34 34 34 34 34 34 34 34 34 35 35 35 36 36 36 36 35 34 35 34
25 24 23 23 24 24 23 23 24 24 24 24 25 26 26 27 28 28 29 30 30 31 32 33 32 32 33 34 33 33 33 33 34 35 35 35 35 34 34 35 34 34 33
25 24 22 22 23 23 23 24 23 23 24 24 24 25 25 27 28 28 28 30 30 31 32 32 31 32 33 34 33 33 32 32 33 34 34 34 34 34 34 34 34 33 33
25 24 23 23 23 24 24 24 24 24 24 25 25 26 26 27 28 28 29 30 31 31 32 31 31 32 31 32 32 32 31 31 31 32 33 33 33 33 33 33 32 31 32
25 25 24 23 24 25 25 25 25 24 24 25 25 26 26 27 27 27 28 29 30 30 30 29 30 31 31 31 30 30 30 30 31 32 32 32 32 32 32 31 31 31 30
26 25 24 24 24 24 23 24 24 24 23 24 25 25 26 27 27 27 28 28 28 28 29 30 29 29 29 29 28 28 28 29 29 28 29 31 31 31 30 31 31 31 30
25 24 23 24 24 24 24 24 24 23 23 24 24 25 25 27 27 27 27 27 27 28 29 28 27 26 26 26 26 26 26 27 26 26 27 28 29 30 30 29 29 29 29
24 23 23 23 24 24 24 24 23 22 22 23 23 24 25 27 27 27 27 27 27 28 27 26 25 24 24 24 24 24 25 25 25 25 25 26 27 27 27 27 28 28 28
23 23 23 23 23 24 24 23 23 22 22 23 24 24 25 27 26 27 26 26 25 25 24 23 23 23 23 23 23 24 24 24 25 25 25 26 26 26 26 26 27 28 28
22 22 23 23 23 24 24 23 23 23 23 23 24 25 26 25 25 24 25 24 24 23 22 22 21 21 21 22 22 23 24 24 25 25 26 26 26 26 26 25 26 26 26
22 22 22 23 23 24 23 23 22 22 22 23 23 24 24 24 23 23 23 23 23 22 21 20 20 20 21 21 22 23 24 24 25 26 27 26 26 27 26 25 24 24 24
23 22 22 22 23 22 22 23 22 22 22 22 22 22 23 23 23 23 23 22 21 21 21 21 21 21 21 22 23 23 24 24 25 25 26 25 26 26 26 25 25 24 24
24 23 23 23 23 23 23 23 23 23 23 22 22 22 22 22 23 22 21 21 21 21 21 22 22 22 22 23 24 24 24 24 25 25 25 25 24 24 24 24 24 23 23
Wind_Direction
274 272 270 267 265 262 262 261 259 256 256 256 257 258 258 259 260 260 261 262 264 265 263 262 262 261 261 263 265 267 267 268 269 270 271 272 272 272 271 270 270 270 270
274 273 271 269 267 264 265 263 260 258 257 258 258 259 259 260 260 260 261 263 263 264 265 263 263 262 261 262 264 266 266 267 269 271 272 272 271 272 272 271 271 272 272
275 273 271 271 268 267 266 263 261 258 258 259 261 261 260 260 261 261 261 263 264 265 265 265 265 264 262 261 263 265 266 267 269 271 273 273 271 270 272 272 273 274 274
276 275 272 272 270 268 266 263 261 259 259 261 262 261 261 260 261 261 261 263 265 265 265 265 265 265 263 262 263 264 266 266 267 269 271 272 273 273 272 272 273 275 276
278 276 273 272 271 269 266 262 261 260 260 262 262 260 259 260 261 261 261 263 265 266 265 265 265 265 265 264 264 265 266 267 267 268 269 271 272 273 273 273 273 274 274
279 277 274 273 273 270 265 261 261 261 261 263 263 261 261 261 261 261 261 262 266 266 264 264 264 265 266 265 265 265 266 267 268 269 269 270 272 271 272 272 273 273 273
278 277 276 275 273 269 265 264 264 264 263 264 266 264 263 262 262 262 262 262 266 266 264 265 265 266 266 266 265 263 264 266 267 268 269 271 271 271 272 272 272 274 273
282 282 279 276 272 270 267 265 269 268 266 266 267 267 265 263 264 265 264 263 265 266 265 265 266 267 267 267 266 264 264 265 265 265 268 271 270 271 272 271 272 273 273
286 284 281 277 275 273 273 271 270 271 269 270 270 269 267 265 267 268 266 265 266 266 266 266 266 267 268 268 266 264 264 265 263 265 268 270 269 269 271 271 271 272 273
285 283 281 280 277 276 276 276 274 274 274 273 271 270 268 269 270 268 267 268 267 266 265 265 267 269 270 269 267 265 264 262 262 264 266 268 268 268 268 270 270 271 273
289 284 282 280 279 279 279 279 278 277 276 274 273 270 270 270 268 265 265 267 267 266 266 267 268 271 272 272 269 266 264 262 263 264 265 266 267 267 267 267 270 271 272
290 287 282 281 281 282 282 282 282 279 278 276 275 272 271 270 267 265 266 268 268 269 269 268 269 272 273 272 270 266 263 263 264 264 263 264 265 266 267 267 269 270 272
291 289 284 282 285 285 284 284 283 281 280 278 277 275 275 272 269 268 269 270 270 271 272 270 271 272 273 272 269 266 264 264 263 262 262 263 265 266 267 267 268 270 273
291 290 288 285 285 287 286 285 284 284 283 282 280 279 278 275 272 271 271 273 273 274 275 273 273 272 272 271 268 266 264 262 261 260 262 264 267 267 266 266 268 270 273
293 292 290 287 287 287 286 286 286 285 284 283 283 283 281 278 276 274 274 275 276 277 276 276 275 272 271 270 269 266 264 262 262 261 263 265 266 267 265 266 269 271 274
294 293 290 286 287 289 288 286 286 287 286 285 285 283 281 280 278 275 276 276 276 278 278 277 276 273 271 269 268 267 265 264 263 262 263 264 265 265 266 267 269 272 272
294 293 291 288 288 288 287 286 287 288 286 284 283 281 279 279 278 276 278 278 278 279 279 277 276 273 270 268 267 265 263 262 263 263 263 264 266 267 268 270 272 272 272
294 291 289 288 288 287 287 287 287 288 286 283 282 280 277 277 277 278 280 279 278 278 279 278 276 274 270 267 264 263 262 263 263 264 265 265 267 268 271 271 271 272 271
294 291 287 284 284 286 288 288 289 290 287 285 284 281 278 277 276 279 280 280 280 280 281 279 278 275 270 267 265 264 264 264 265 267 268 268 268 270 271 270 269 271 271
292 292 288 285 285 287 288 289 290 291 289 286 284 282 280 278 278 279 280 281 283 283 283 281 280 277 273 268 266 266 264 264 266 268 269 268 269 269 271 270 270 270 271
293 290 288 287 287 289 291 292 292 291 290 287 286 284 283 281 280 279 281 282 284 285 285 281 278 276 271 266 263 263 263 265 266 268 270 269 268 269 271 271 270 270 271
291 290 289 288 290 291 292 293 294 293 292 290 288 286 285 285 283 284 285 285 286 286 284 281 277 272 269 266 263 262 263 264 265 268 271 271 268 269 271 272 271 271 272
291 289 288 288 289 292 294 294 295 295 295 295 292 290 288 287 287 288 287 284 284 285 285 284 280 275 269 267 265 263 263 265 267 269 271 271 269 269 270 271 271 272 272
291 290 288 287 288 291 295 298 296 296 296 297 296 294 291 289 289 290 290 287 283 283 283 284 282 277 271 267 266 265 267 268 269 271 271 271 271 272 272 274 274 273 273
291 291 291 289 290 291 294 295 295 296 296 295 295 295 291 288 289 290 289 286 285 284 284 284 283 277 272 269 268 268 270 270 270 270 270 269 270 273 274 274 274 274 274
292 292 290 289 292 295 295 294 293 295 294 294 295 294 290 288 287 287 285 284 284 283 283 283 282 277 273 270 269 269 271 271 269 269 271 270 271 273 273 273 274 273 272
Height
5692 5691 5690 5691 5691 5692 5694 5695 5697 5699 5701 5704 5706 5709 5711 5712 5714 5716 5716 5718 5719 5719 5720 5722 5723 5724 5726 5727 5728 5729 5730 5731 5731 5731 5732 5732 5731 5730 5730 5731 5732 5732 5733
5684 5683 5683 5683 5683 5684 5685 5686 5687 5689 5691 5693 5696 5698 5700 5702 5703 5705 5706 5708 5709 5709 5710 5712 5713 5714 5715 5716 5717 5718 5719 5720 5720 5721 5721 5722 5723 5721 5721 5721 5722 5722 5723
5676 5676 5676 5675 5675 5676 5676 5677 5678 5680 5682 5684 5686 5687 5689 5691 5693 5695 5696 5697 5698 5700 5700 5701 5702 5703 5704 5705 5706 5707 5708 5709 5710 5710 5710 5711 5712 5712 5713 5712 5712 5712 5712
5669 5668 5668 5667 5667 5667 5668 5668 5670 5671 5673 5674 5676 5677 5679 5680 5682 5685 5686 5687 5688 5689 5689 5691 5691 5692 5693 5694 5695 5696 5697 5698 5699 5700 5699 5700 5700 5702 5703 5703 5703 5703 5702
5662 5661 5661 5660 5659 5660 5660 5661 5662 5663 5664 5665 5666 5668 5669 5670 5672 5674 5676 5677 5678 5678 5678 5680 5681 5682 5683 5683 5684 5685 5686 5687 5688 5689 5690 5690 5690 5691 5692 5693 5694 5693 5692
5656 5655 5654 5653 5652 5652 5652 5653 5654 5654 5655 5656 5657 5659 5660 5661 5662 5664 5666 5666 5667 5668 5668 5670 5671 5672 5673 5673 5673 5674 5675 5677 5678 5679 5680 5680 5681 5681 5682 5683 5683 5683 5682
5650 5649 5648 5647 5646 5646 5646 5646 5646 5647 5648 5648 5649 5649 5650 5651 5652 5654 5655 5656 5657 5658 5659 5660 5661 5662 5662 5663 5663 5664 5665 5667 5668 5669 5670 5671 5671 5672 5672 5672 5672 5673 5673
5644 5643 5642 5641 5640 5640 5639 5639 5639 5639 5640 5640 5640 5641 5641 5642 5643 5644 5645 5646 5647 5649 5649 5651 5652 5652 5652 5652 5653 5654 5655 5657 5658 5659 5661 5661 5662 5662 5662 5663 5663 5664 5665
5639 5638 5636 5635 5635 5634 5633 5632 5632 5631 5631 5632 5632 5632 5633 5633 5634 5634 5635 5637 5638 5640 5640 5641 5642 5642 5643 5643 5643 5644 5645 5646 5648 5649 5651 5652 5652 5653 5653 5654 5655 5656 5656
5634 5632 5631 5630 5629 5628 5627 5626 5624 5624 5623 5623 5623 5624 5624 5624 5624 5625 5626 5628 5629 5630 5631 5631 5632 5632 5633 5632 5633 5634 5635 5636 5638 5640 5641 5642 5643 5644 5645 5645 5646 5646 5647
5628 5626 5625 5624 5623 5622 5620 5619 5617 5616 5615 5615 5614 5614 5615 5615 5616 5617 5618 5619 5620 5620 5621 5622 5622 5623 5622 5622 5623 5624 5625 5627 5629 5630 5632 5633 5634 5635 5636 5636 5637 5637 5638
5622 5620 5619 5618 5617 5615 5614 5612 5610 5609 5608 5607 5606 5606 5606 5606 5607 5608 5610 5610 5610 5611 5611 5612 5612 5613 5613 5613 5613 5614 5615 5617 5619 5621 5622 5623 5624 5626 5626 5627 5628 5628 5629
5616 5614 5613 5611 5610 5608 5607 5605 5603 5602 5601 5599 5599 5599 5599 5599 5599 5600 5601 5601 5602 5602 5602 5602 5603 5603 5603 5603 5604 5605 5606 5608 5609 5611 5613 5614 5615 5616 5617 5618 5619 5619 5620
5610 5608 5606 5604 5603 5602 5600 5599 5597 5596 5595 5593 5593 5592 5592 5592 5592 5593 5593 5593 5593 5593 5593 5593 5593 5593 5593 5594 5594 5595 5597 5598 5600 5602 5604 5605 5606 5607 5608 5609 5610 5611 5612
5605 5603 5601 5599 5597 5596 5594 5593 5591 5590 5589 5588 5587 5586 5585 5585 5585 5585 5585 5585 5585 5585 5584 5584 5584 5584 5584 5584 5585 5586 5588 5590 5591 5593 5595 5596 5597 5598 5599 5600 5601 5602 5603
5599 5597 5595 5594 5592 5590 5589 5587 5586 5584 5583 5582 5581 5580 5579 5578 5578 5578 5578 5578 5577 5576 5576 5575 5575 5575 5575 5576 5576 5577 5579 5581 5583 5584 5586 5587 5588 5589 5590 5591 5592 5593 5594
5593 5591 5589 5588 5586 5585 5583 5582 5580 5578 5577 5576 5575 5574 5573 5572 5571 5571 5570 5570 5569 5568 5567 5567 5566 5566 5566 5567 5568 5569 5570 5572 5574 5576 5577 5579 5580 5581 5582 5582 5583 5584 5584
5588 5586 5584 5582 5580 5579 5577 5576 5574 5572 5570 5569 5568 5567 5565 5565 5564 5563 5562 5561 5560 5560 5559 5559 5558 5558 5558 5558 5560 5561 5563 5564 5566 5568 5569 5570 5571 5572 5573 5574 5575 5575 5575
5582 5580 5578 5576 5575 5573 5571 5569 5567 5566 5564 5562 5561 5559 5558 5557 5557 5556 5555 5554 5553 5552 5551 5550 5550 5550 5550 5551 5552 5553 5555 5556 5558 5559 5561 5561 5562 5564 5564 5566 5566 5567 5567
5576 5574 5572 5571 5569 5567 5565 5563 5561 5559 5557 5556 5554 5553 5552 5551 5550 5549 5548 5546 5545 5544 5543 5542 5542 5542 5542 5543 5544 5546 5547 5549 5551 5552 5553 5554 5554 5555 5556 5557 5558 5559 5559
5570 5568 5566 5565 5563 5561 5559 5558 5555 5553 5551 5550 5548 5547 5545 5544 5543 5542 5540 5539 5538 5536 5535 5535 5535 5535 5535 5536 5537 5538 5540 5542 5543 5544 5545 5546 5546 5547 5548 5548 5550 5551 5551
5563 5562 5560 5559 5557 5556 5554 5552 5550 5548 5546 5544 5542 5541 5539 5538 5536 5534 5533 5532 5531 5530 5528 5528 5528 5528 5528 5529 5530 5531 5533 5535 5536 5537 5538 5538 5539 5540 5540 5541 5541 5542 5543
5557 5556 5554 5553 5551 5550 5548 5546 5544 5542 5540 5538 5536 5535 5533 5531 5529 5528 5526 5525 5524 5523 5522 5521 5521 5522 5522 5523 5523 5525 5526 5527 5529 5530 5531 5531 5532 5532 5533 5533 5534 5534 5535
5551 5549 5548 5546 5545 5543 5541 5539 5537 5536 5534 5532 5530 5528 5526 5525 5523 5521 5519 5518 5517 5516 5516 5515 5515 5515 5516 5517 5517 5518 5519 5520 5521 5522 5523 5523 5524 5525 5525 5526 5526 5526 5527
5545 5543 5541 5540 5538 5537 5535 5533 5531 5530 5528 5526 5524 5522 5520 5518 5517 5515 5513 5512 5511 5511 5511 5510 5510 5510 5510 5511 5511 5511 5512 5513 5514 5515 5516 5516 5517 5517 5518 5518 5519 5519 5519
5538 5537 5535 5534 5532 5530 5529 5527 5525 5524 5522 5520 5517 5516 5514 5512 5511 5510 5508 5507 5506 5505 5505 5505 5505 5504 5504 5504 5504 5505 5505 5506 5507 5508 5509 5509 5510 5510 5511 5511 5512 5512 5512